******** Week 356 almanac for PRN-1 ******** ID: 1 Health: 0 Eccentricity: 0.001476287842 Time of Applicability(s): 405504 Orbital Inclination(rad): 0.9584467758 Rate of Right Ascen(r/s): -7.840326581e-09 SQRT(A) (m 1/2): 5153.583008 Right Ascen at Week(rad): -2.646579002 Argument of Perigee(rad): 0.0289759833 Mean Anom(rad): -0.3670030311 Af0(s): 0.0002652933594 Af1(s/s): -3.637979e-12 week: 356 ******** Week 356 almanac for PRN-2 ******** ID: 2 Health: 0 Eccentricity: 0.016954422 Time of Applicability(s): 405504 Orbital Inclination(rad): 0.9638576533 Rate of Right Ascen(r/s): -7.771752296e-09 SQRT(A) (m 1/2): 5153.557617 Right Ascen at Week(rad): -2.809159244 Argument of Perigee(rad): -0.8314074757 Mean Anom(rad): 1.053425728 Af0(s): 2.562492676e-05 Af1(s/s): 7.275958e-12 week: 356 ******** Week 356 almanac for PRN-3 ******** ID: 3 Health: 0 Eccentricity: 0.006388187408 Time of Applicability(s): 405504 Orbital Inclination(rad): 0.9927636038 Rate of Right Ascen(r/s): -7.703178011e-09 SQRT(A) (m 1/2): 5153.595215 Right Ascen at Week(rad): -1.660279539 Argument of Perigee(rad): 1.205206686 Mean Anom(rad): -2.556010844 Af0(s): 0.0004567266357 Af1(s/s): -1.091394e-11 week: 356 ******** Week 356 almanac for PRN-4 ******** ID: 4 Health: 0 Eccentricity: 0.00372505188 Time of Applicability(s): 405504 Orbital Inclination(rad): 0.970502906 Rate of Right Ascen(r/s): -8.057478483e-09 SQRT(A) (m 1/2): 5153.687988 Right Ascen at Week(rad): -0.589008176 Argument of Perigee(rad): -2.896212279 Mean Anom(rad): 0.4650347399 Af0(s): 3.316166992e-05 Af1(s/s): 3.637979e-12 week: 356 ******** Week 356 almanac for PRN-5 ******** ID: 5 Health: 0 Eccentricity: 0.005363464355 Time of Applicability(s): 405504 Orbital Inclination(rad): 0.9793532561 Rate of Right Ascen(r/s): -7.794610391e-09 SQRT(A) (m 1/2): 5153.643555 Right Ascen at Week(rad): -1.719719796 Argument of Perigee(rad): 1.420637734 Mean Anom(rad): 1.100985874 Af0(s): -0.0001808818359 Af1(s/s): 0 week: 356 ******** Week 356 almanac for PRN-6 ******** ID: 6 Health: 0 Eccentricity: 0.003872871399 Time of Applicability(s): 405504 Orbital Inclination(rad): 0.9873826868 Rate of Right Ascen(r/s): -7.520313251e-09 SQRT(A) (m 1/2): 5153.580078 Right Ascen at Week(rad): -2.696744967 Argument of Perigee(rad): -0.5972166211 Mean Anom(rad): -1.203000839 Af0(s): -0.0004808442139 Af1(s/s): -3.637979e-12 week: 356 ******** Week 356 almanac for PRN-7 ******** ID: 7 Health: 0 Eccentricity: 0.0203089714 Time of Applicability(s): 405504 Orbital Inclination(rad): 0.9512322724 Rate of Right Ascen(r/s): -7.794610391e-09 SQRT(A) (m 1/2): 5153.585938 Right Ascen at Week(rad): 0.419507044 Argument of Perigee(rad): -1.999472427 Mean Anom(rad): -2.093014171 Af0(s): -0.0001145584961 Af1(s/s): -3.637979e-12 week: 356 ******** Week 356 almanac for PRN-8 ******** ID: 8 Health: 0 Eccentricity: 0.01150798798 Time of Applicability(s): 405504 Orbital Inclination(rad): 0.943808045 Rate of Right Ascen(r/s): -8.331775623e-09 SQRT(A) (m 1/2): 5153.614258 Right Ascen at Week(rad): 2.467647783 Argument of Perigee(rad): 0.5117754641 Mean Anom(rad): 0.7485511662 Af0(s): 0.0003919106445 Af1(s/s): -3.637979e-12 week: 356 ******** Week 356 almanac for PRN-9 ******** ID: 9 Health: 0 Eccentricity: 0.00332069397 Time of Applicability(s): 405504 Orbital Inclination(rad): 0.9646066674 Rate of Right Ascen(r/s): -8.148910863e-09 SQRT(A) (m 1/2): 5153.510254 Right Ascen at Week(rad): -0.6530743444 Argument of Perigee(rad): 2.065941432 Mean Anom(rad): 1.352729498 Af0(s): 0.0006089688477 Af1(s/s): 0 week: 356 ******** Week 356 almanac for PRN-10 ******** ID: 10 Health: 0 Eccentricity: 0.01096630096 Time of Applicability(s): 405504 Orbital Inclination(rad): 0.9923082032 Rate of Right Ascen(r/s): -7.703178011e-09 SQRT(A) (m 1/2): 5153.604492 Right Ascen at Week(rad): -1.662788361 Argument of Perigee(rad): -2.259442847 Mean Anom(rad): 2.746452162 Af0(s): -0.0004635097046 Af1(s/s): -3.637979e-12 week: 356 ******** Week 356 almanac for PRN-11 ******** ID: 11 Health: 0 Eccentricity: 0.002222061157 Time of Applicability(s): 405504 Orbital Inclination(rad): 0.9642291643 Rate of Right Ascen(r/s): -7.771752296e-09 SQRT(A) (m 1/2): 5153.51709 Right Ascen at Week(rad): -2.677402803 Argument of Perigee(rad): -2.289347608 Mean Anom(rad): -0.1747775616 Af0(s): -0.000354980603 Af1(s/s): 1.455192e-11 week: 356 ******** Week 356 almanac for PRN-12 ******** ID: 12 Health: 0 Eccentricity: 0.00906085968 Time of Applicability(s): 405504 Orbital Inclination(rad): 0.9588242788 Rate of Right Ascen(r/s): -7.966046103e-09 SQRT(A) (m 1/2): 5153.73584 Right Ascen at Week(rad): 1.537240123 Argument of Perigee(rad): 1.550803644 Mean Anom(rad): -2.722224928 Af0(s): -0.0004800905395 Af1(s/s): 0 week: 356 ******** Week 356 almanac for PRN-13 ******** ID: 13 Health: 0 Eccentricity: 0.009949207306 Time of Applicability(s): 405504 Orbital Inclination(rad): 0.9762253734 Rate of Right Ascen(r/s): -7.966046103e-09 SQRT(A) (m 1/2): 5153.619141 Right Ascen at Week(rad): -0.4783248708 Argument of Perigee(rad): 0.9995195612 Mean Anom(rad): 0.4858288681 Af0(s): 0.0005433991821 Af1(s/s): 0 week: 356 ******** Week 356 almanac for PRN-14 ******** ID: 14 Health: 0 Eccentricity: 0.006587505341 Time of Applicability(s): 405504 Orbital Inclination(rad): 0.9421841826 Rate of Right Ascen(r/s): -8.137481816e-09 SQRT(A) (m 1/2): 5153.59375 Right Ascen at Week(rad): 1.482982668 Argument of Perigee(rad): -2.758844599 Mean Anom(rad): -2.906195513 Af0(s): 0.0005795755493 Af1(s/s): 3.637979e-12 week: 356 ******** Week 356 almanac for PRN-15 ******** ID: 15 Health: 0 Eccentricity: 0.01660633087 Time of Applicability(s): 405504 Orbital Inclination(rad): 0.9423639459 Rate of Right Ascen(r/s): -8.388920861e-09 SQRT(A) (m 1/2): 5153.622559 Right Ascen at Week(rad): -0.7965105363 Argument of Perigee(rad): 1.497015447 Mean Anom(rad): -0.2545101079 Af0(s): 0.0003029770752 Af1(s/s): 3.637979e-12 week: 356 ******** Week 356 almanac for PRN-16 ******** ID: 16 Health: 0 Eccentricity: 0.0150604248 Time of Applicability(s): 405504 Orbital Inclination(rad): 0.9579614147 Rate of Right Ascen(r/s): -7.988904198e-09 SQRT(A) (m 1/2): 5153.582031 Right Ascen at Week(rad): 1.554267834 Argument of Perigee(rad): 0.9255742719 Mean Anom(rad): 1.760012633 Af0(s): 0.0001597789551 Af1(s/s): 7.275958e-12 week: 356 ******** Week 356 almanac for PRN-17 ******** ID: 17 Health: 0 Eccentricity: 0.01273965836 Time of Applicability(s): 405504 Orbital Inclination(rad): 0.9595852771 Rate of Right Ascen(r/s): -8.160339911e-09 SQRT(A) (m 1/2): 5153.519043 Right Ascen at Week(rad): 2.571945369 Argument of Perigee(rad): -1.128398665 Mean Anom(rad): 0.6549584892 Af0(s): -4.295943603e-05 Af1(s/s): -1.091394e-11 week: 356 ******** Week 356 almanac for PRN-18 ******** ID: 18 Health: 0 Eccentricity: 0.005706310272 Time of Applicability(s): 405504 Orbital Inclination(rad): 0.9723364924 Rate of Right Ascen(r/s): -7.691748963e-09 SQRT(A) (m 1/2): 5153.599121 Right Ascen at Week(rad): -2.701421062 Argument of Perigee(rad): -2.85998921 Mean Anom(rad): -1.328633342 Af0(s): -0.0003421681396 Af1(s/s): 1.091394e-11 week: 356 ******** Week 356 almanac for PRN-19 ******** ID: 19 Health: 0 Eccentricity: 0.01103162765 Time of Applicability(s): 405504 Orbital Inclination(rad): 0.9588003104 Rate of Right Ascen(r/s): -8.160339911e-09 SQRT(A) (m 1/2): 5153.655273 Right Ascen at Week(rad): 2.61584733 Argument of Perigee(rad): 2.921988849 Mean Anom(rad): 2.49830006 Af0(s): 0.0005441528564 Af1(s/s): 0 week: 356 ******** Week 356 almanac for PRN-20 ******** ID: 20 Health: 255 Eccentricity: 0.0004897117615 Time of Applicability(s): 405504 Orbital Inclination(rad): 0.9595972614 Rate of Right Ascen(r/s): -8.194627053e-09 SQRT(A) (m 1/2): 5153.591797 Right Ascen at Week(rad): -0.647408053 Argument of Perigee(rad): 1.063670743 Mean Anom(rad): 0.4487624095 Af0(s): 0 Af1(s/s): 0 week: 356 ******** Week 356 almanac for PRN-21 ******** ID: 21 Health: 0 Eccentricity: 0.0006489753723 Time of Applicability(s): 405504 Orbital Inclination(rad): 0.962191846 Rate of Right Ascen(r/s): -8.011762293e-09 SQRT(A) (m 1/2): 5153.699219 Right Ascen at Week(rad): -1.65327064 Argument of Perigee(rad): -0.4331259921 Mean Anom(rad): -2.922056635 Af0(s): 0.0003112674927 Af1(s/s): 7.275958e-12 week: 356 ******** Week 356 almanac for PRN-22 ******** ID: 22 Health: 0 Eccentricity: 0.01216554642 Time of Applicability(s): 405504 Orbital Inclination(rad): 0.9574041482 Rate of Right Ascen(r/s): -8.011762293e-09 SQRT(A) (m 1/2): 5153.574219 Right Ascen at Week(rad): 1.557614429 Argument of Perigee(rad): -0.9949648067 Mean Anom(rad): 1.305389938 Af0(s): -3.994473877e-05 Af1(s/s): 3.637979e-12 week: 356 ******** Week 356 almanac for PRN-23 ******** ID: 23 Health: 0 Eccentricity: 0.006011009216 Time of Applicability(s): 405504 Orbital Inclination(rad): 0.9873107814 Rate of Right Ascen(r/s): -7.748894201e-09 SQRT(A) (m 1/2): 5153.655273 Right Ascen at Week(rad): -1.694769764 Argument of Perigee(rad): -2.740726698 Mean Anom(rad): -2.44478338 Af0(s): 0.0004808442139 Af1(s/s): 3.637979e-12 week: 356 ******** Week 356 almanac for PRN-24 ******** ID: 24 Health: 0 Eccentricity: 0.01785993576 Time of Applicability(s): 405504 Orbital Inclination(rad): 0.9352632927 Rate of Right Ascen(r/s): -8.034620388e-09 SQRT(A) (m 1/2): 5153.601074 Right Ascen at Week(rad): 0.3114980934 Argument of Perigee(rad): 1.131754248 Mean Anom(rad): -1.111390803 Af0(s): -0.0001055144043 Af1(s/s): 1.455192e-11 week: 356 ******** Week 356 almanac for PRN-25 ******** ID: 25 Health: 0 Eccentricity: 0.0129532814 Time of Applicability(s): 405504 Orbital Inclination(rad): 0.9471875965 Rate of Right Ascen(r/s): -8.068907531e-09 SQRT(A) (m 1/2): 5153.680664 Right Ascen at Week(rad): 1.443658681 Argument of Perigee(rad): 1.153565163 Mean Anom(rad): -2.872718704 Af0(s): 0.0003519659058 Af1(s/s): -3.637979e-12 week: 356 ******** Week 356 almanac for PRN-26 ******** ID: 26 Health: 0 Eccentricity: 0.01099443436 Time of Applicability(s): 405504 Orbital Inclination(rad): 0.9280008524 Rate of Right Ascen(r/s): -8.228914196e-09 SQRT(A) (m 1/2): 5153.646973 Right Ascen at Week(rad): 1.369565087 Argument of Perigee(rad): 0.7056547567 Mean Anom(rad): 2.585452714 Af0(s): -0.0002547419189 Af1(s/s): -7.275958e-12 week: 356 ******** Week 356 almanac for PRN-27 ******** ID: 27 Health: 0 Eccentricity: 0.01427602768 Time of Applicability(s): 405504 Orbital Inclination(rad): 0.9529280402 Rate of Right Ascen(r/s): -8.240343243e-09 SQRT(A) (m 1/2): 5153.605469 Right Ascen at Week(rad): 2.49945429 Argument of Perigee(rad): 0.8725478218 Mean Anom(rad): 0.8434538688 Af0(s): -2.713227539e-05 Af1(s/s): -1.091394e-11 week: 356 ******** Week 356 almanac for PRN-28 ******** ID: 28 Health: 0 Eccentricity: 0.0004057884216 Time of Applicability(s): 405504 Orbital Inclination(rad): 0.9621978382 Rate of Right Ascen(r/s): -7.726036106e-09 SQRT(A) (m 1/2): 5153.734375 Right Ascen at Week(rad): 0.3934907897 Argument of Perigee(rad): 0.2099520107 Mean Anom(rad): -1.947681476 Af0(s): -0.0004748148193 Af1(s/s): 7.275958e-12 week: 356 ******** Week 356 almanac for PRN-29 ******** ID: 29 Health: 0 Eccentricity: 0.003296375275 Time of Applicability(s): 405504 Orbital Inclination(rad): 0.9622337908 Rate of Right Ascen(r/s): -8.137481816e-09 SQRT(A) (m 1/2): 5153.716309 Right Ascen at Week(rad): 2.588591457 Argument of Perigee(rad): 2.742917564 Mean Anom(rad): 0.7171521224 Af0(s): -0.0003007160522 Af1(s/s): 7.275958e-12 week: 356 ******** Week 356 almanac for PRN-30 ******** ID: 30 Health: 0 Eccentricity: 0.007955551147 Time of Applicability(s): 405504 Orbital Inclination(rad): 0.9364976678 Rate of Right Ascen(r/s): -7.954617056e-09 SQRT(A) (m 1/2): 5153.722656 Right Ascen at Week(rad): 0.410873908 Argument of Perigee(rad): -2.335532938 Mean Anom(rad): -2.226859987 Af0(s): 8.817989502e-05 Af1(s/s): 1.091394e-11 week: 356 ******** Week 356 almanac for PRN-31 ******** ID: 31 Health: 0 Eccentricity: 0.0108423233 Time of Applicability(s): 405504 Orbital Inclination(rad): 0.9549893269 Rate of Right Ascen(r/s): -7.783181343e-09 SQRT(A) (m 1/2): 5153.723633 Right Ascen at Week(rad): 0.4436121889 Argument of Perigee(rad): 0.9348530581 Mean Anom(rad): 3.106871734 Af0(s): -0.000133400354 Af1(s/s): 3.637979e-12 week: 356 ******** Week 356 almanac for PRN-32 ******** ID: 32 Health: 0 Eccentricity: 0.009264469147 Time of Applicability(s): 405504 Orbital Inclination(rad): 0.9676806211 Rate of Right Ascen(r/s): -8.103194673e-09 SQRT(A) (m 1/2): 5153.666016 Right Ascen at Week(rad): -0.6361556149 Argument of Perigee(rad): -2.013702196 Mean Anom(rad): 1.438783349 Af0(s): -8.441152344e-05 Af1(s/s): 1.818989e-11 week: 356